Regional Weather Roundup
Issued by NWS

Home | Current Version | Previous Version | Graphics & Text | Print | Product List | Glossary Off
Versions: 1 2 3 4 5 6 7 8 9 10 11 12 13 14 15 16 17 18 19 20 21 22 23 24 25 26 27 28 29 30 31 32 33 34 35 36 37 38 39 40 41 42 43 44 45 46 47 48 49 50

000
ASUS43 KMKX 280400
RWRWI

WISCONSIN REGIONAL WEATHER ROUNDUP
NATIONAL WEATHER SERVICE MILWAUKEE/SULLIVAN WI
1100 PM CDT TUE SEP 27 2016

NOTE: "FAIR" INDICATES FEW OR NO CLOUDS BELOW 12,000 FEET WITH NO
SIGNIFICANT WEATHER AND/OR OBSTRUCTIONS TO VISIBILITY.

WIZ001-002-006>008-014>016-023>028-280500-
NORTHWEST WISCONSIN

CITY           SKY/WX    TMP DP  RH WIND       PRES   REMARKS
SUPERIOR ARPT  CLOUDY    50  47  87 N6        29.86R
ASHLAND        CLOUDY    51  48  89 NW8       29.82R
HAYWARD        CLOUDY    48  45  89 VRB5      29.84R
SIREN          CLOUDY    47  46  93 NW6       29.87R
CUMBERLAND     CLOUDY    46  43  87 N10G17    29.85R
RICE LAKE      CLOUDY    48  45  89 N6        29.86R
CHETEK         NOT AVBL
LADYSMITH      CLOUDY    48  46  93 NW8       29.83R
EAU CLAIRE     NOT AVBL
MENOMONIE      CLOUDY    47  47 100 NW8       29.85R
NEW RICHMOND   CLOUDY    47  46  96 NW7       29.87R
OSCEOLA        CLOUDY    48  48 100 N5        29.91R
$$

WIZ003>005-009-010-017-018-280500-
NORTH CENTRAL WISCONSIN

CITY           SKY/WX    TMP DP  RH WIND       PRES   REMARKS
MANITOWISH WTR NOT AVBL
ARBOR VITAE    LGT RAIN  49  48  96 NW6       29.76R
WOODRUFF       LGT RAIN  49  48  96 NW6       29.76R
RHINELANDER    CLOUDY    48  48 100 W7        29.76R
EAGLE RIVER    DRIZZLE   48  48 100 CALM      29.74R
LAND O LAKES   LGT RAIN  50  49  98 NW7       29.75R
PHILLIPS       CLOUDY    46  46 100 NW5       29.79R
TOMAHAWK       CLOUDY    46  45  94 NW6       29.78R
MEDFORD        CLOUDY    46  46 100 NW10      29.78R
MERRILL        CLOUDY    48  47  99 NW7       29.77R
$$

WIZ029-030-035-036-043>047-280500-
CENTRAL WISCONSIN

CITY           SKY/WX    TMP DP  RH WIND       PRES   REMARKS
WAUSAU         CLOUDY    48  46  93 NW7       29.75R
MOSINEE        CLOUDY    46  46 100 NW8       29.77S
MARSHFIELD     CLOUDY    49  45  86 NW10      29.78R
STEVENS POINT  DRIZZLE   46  46 100 W3        29.77R
WAUPACA        CLOUDY    51  50  95 W5        29.76S
WAUTOMA        CLOUDY    49  47  93 W6        29.78R
WISC RAPIDS    CLOUDY    48  48 100 NW8       29.79R
CAMP DOUGLAS   NOT AVBL
$$

WIZ011>013-019>022-031-037>040-048>050-280500-
NORTHEAST WISCONSIN

CITY           SKY/WX    TMP DP  RH WIND       PRES   REMARKS
ANTIGO         CLOUDY    47  46  99 CALM      29.75R
SHAWANO        CLOUDY    51  49  90 W3        29.74S
OCONTO         NOT AVBL
STURGEON BAY   MOCLDY    51  48  89 NW5       29.73R
GREEN BAY      CLOUDY    50  50 100 W6        29.74R
MANITOWOC      NOT AVBL
APPLETON       CLOUDY    48  48 100 W6        29.74R
CLINTONVILLE   NOT AVBL
OSHKOSH        CLOUDY    50  47  89 W7        29.75S
$$

WIZ032>034-041-042-053>061-280500-
SOUTHWEST WISCONSIN

CITY           SKY/WX    TMP DP  RH WIND       PRES   REMARKS
LA CROSSE      MOCLDY    51  47  86 NW9       29.82R
SPARTA         CLOUDY    47  47  98 W3        29.82S
VIROQUA        PTCLDY    47  46  97 NW7       29.81S
BOSCOBEL       MOCLDY    52  47  83 NW3       29.82S
PRAIRIE DU CHI CLOUDY    52  44  74 NW7       29.81S
PLATTEVILLE    MOCLDY    51  48  89 N8        29.82S
$$

WIZ056-057-062-063-064-067-068-280500-
SOUTH CENTRAL WISCONSIN

CITY           SKY/WX    TMP DP  RH WIND       PRES   REMARKS
REEDSBURG      NOT AVBL
BARABOO/DELLS  RAIN      47  46  95 W5        29.79S
LONE ROCK      NOT AVBL
MINERAL POINT  CLOUDY    50  46  87 NW3       29.81S
MADISON        LGT RAIN  48  46  93 NW5       29.79S
MIDDLETON      CLOUDY    49  49  98 W6        29.80S
WATERTOWN      RAIN      48  48 100 CALM      29.78S
MONROE         LGT RAIN  50  45  81 CALM      29.81F
JANESVILLE     CLOUDY    52  45  76 W5        29.81R
$$

WIZ051-052-058>065-066-070>072-280500-
SOUTHEAST WISCONSIN

CITY           SKY/WX    TMP DP  RH WIND       PRES   REMARKS
MILWAUKEE      LGT RAIN  52  47  83 W8        29.79R
WAUKESHA       DRIZZLE   46  45  93 W5        29.80R
MILWAUKEE/TIMM DRIZZLE   50  45  81 W5        29.79S
RACINE         CLOUDY    51  46  83 W5        29.81R
BURLINGTON     CLOUDY    49  45  85 CALM      29.80S
KENOSHA        CLOUDY    51  45  79 CALM      29.80R
FOND DU LAC    CLOUDY    50  48  93 W6        29.77R
SHEBOYGAN      LGT RAIN  50  48  93 W5        29.76R
WEST BEND      RAIN      48  45  87 W5        29.78R
JUNEAU         DRIZZLE   48  47  96 SW5       29.79R
$$

LSZ147-162-280500-
LAKE SUPERIOR

STATION/POSITION TIME  TEMP    WIND        PRES    WAVE
                       AIR SEA DIR/SP/G            HT/PER
                 (UTC) (F)     (DEG/KT/KT) (MB)    (FT/S)
W MID LAKE BUOY  0250   56 51   10/ 17/ 21 1007.2R   3/ 4
DEVILS ISLAND    0300   53     340/ 21/ 23 1009.3R
SAXON HARBOR     0300   54     320/ 16/ 21 1008.5R
$$

LMZ867-665-643>646-280500-
LAKE MICHIGAN

STATION/POSITION TIME  TEMP    WIND        PRES    WAVE
                       AIR SEA DIR/SP/G            HT/PER
                 (UTC) (F)     (DEG/KT/KT) (MB)    (FT/S)
CHAMBERS ISLAND  0300   53     280/  4/  9 1006.1R
N MID LAKE BUOY  0250   56 66  280/  6/  8 1005.2R   3/ 6
NORTHPORT PIER   0340   54     300/  6/ 10 1006.4R
SISTER BAY       0308   55     330/ 12/ 14   N/A
ALGOMA LAKESHORE 0217          260/  6/  9   N/A
KEWAUNEE LAKESHO 0300   51     280/  5/  8 1006.1R
SHEBOYGAN LAKESH 0300   51     240/  7/  8 1007.5S
PORT WASHINGTON  0300   52     250/  4/  6 1009.1
ATWATER BUOY     0300   52 54  270/  6/  6 1008.4F
MILWAUKEE LAKESH 0310   52     290/  5/  7   N/A
S MID LAKE BUOY  0250   58 70  330/ 10/ 16 1008.1R   3/ 5
KENOSHA   LAKESH 0300   54     350/  8/ 12 1008.8F
$$

TC  - TEMPERATURE IN CELSIUS
VSB - VISIBILITY IN STATUTE MILES
WCI - WIND CHILL INDEX
HX  - HEAT INDEX





USA.gov is the U.S. government's official web portal to all federal, state and local government web resources and services.